| time (UTC) | temp F | wind direction | speed MPH | gust MPH | rain 1hr in | rain 24hr in | rain mn in | humidity % | barometer mb |
| 20260507093541 | 51 | 248 | 7.0 | 14.0 | 0.00 | 0.28 | 0.14 | 91 | 1016.0 |
| 20260507091542 | 49 | 270 | 5.0 | 9.0 | 0.00 | 0.28 | 0.14 | 94 | 1015.6 |
| 20260507090542 | 49 | 270 | 5.0 | 9.0 | 0.00 | 0.28 | 0.14 | 94 | 1015.6 |
| 20260506204541 | 51 | 202 | 3.0 | 8.0 | 0.06 | 0.13 | 0.13 | 93 | 1010.5 |
| 20260506203541 | 51 | 202 | 4.0 | 8.0 | 0.06 | 0.13 | 0.13 | 93 | 1010.5 |
| 20260506202541 | 51 | 225 | 4.0 | 10.0 | 0.06 | 0.13 | 0.13 | 93 | 1010.2 |
| 20260506201541 | 52 | 202 | 3.0 | 6.0 | 0.06 | 0.12 | 0.12 | 93 | 1010.1 |
| 20260506200541 | 52 | 202 | 4.0 | 8.0 | 0.07 | 0.11 | 0.11 | 92 | 1010.2 |
| 20260506195541 | 52 | 180 | 4.0 | 9.0 | 0.07 | 0.10 | 0.10 | 92 | 1010.1 |
| 20260506194541 | 52 | 180 | 4.0 | 8.0 | 0.06 | 0.08 | 0.08 | 92 | 1009.9 |
| 20260506193541 | 52 | 202 | 4.0 | 7.0 | 0.05 | 0.07 | 0.07 | 92 | 1009.8 |
| 20260506192541 | 53 | 202 | 3.0 | 9.0 | 0.05 | 0.06 | 0.06 | 92 | 1009.6 |
| 20260506191541 | 53 | 202 | 4.0 | 11.0 | 0.04 | 0.06 | 0.06 | 91 | 1009.4 |
| 20260506190541 | 53 | 180 | 4.0 | 8.0 | 0.03 | 0.04 | 0.04 | 91 | 1009.4 |
| 20260506185541 | 53 | 202 | 3.0 | 9.0 | 0.02 | 0.03 | 0.03 | 91 | 1009.2 |
| 20260506184541 | 53 | 202 | 4.0 | 10.0 | 0.02 | 0.02 | 0.02 | 91 | 1009.0 |
| 20260506183544 | 53 | 202 | 5.0 | 10.0 | 0.02 | 0.02 | 0.02 | 90 | 1009.0 |
| 20260506182544 | 54 | 180 | 4.0 | 10.0 | 0.01 | 0.02 | 0.02 | 90 | 1008.9 |
| 20260506181544 | 54 | 202 | 3.0 | 8.0 | 0.01 | 0.02 | 0.02 | 90 | 1008.7 |
| 20260506180544 | 54 | 202 | 3.0 | 9.0 | 0.00 | 0.01 | 0.01 | 90 | 1008.7 |
| 20260506175544 | 54 | 202 | 2.0 | 5.0 | 0.01 | 0.03 | 0.01 | 90 | 1008.7 |
| 20260506174544 | 54 | 225 | 2.0 | 5.0 | 0.01 | 0.03 | 0.01 | 89 | 1008.5 |
| 20260506173544 | 54 | 225 | 3.0 | 7.0 | 0.01 | 0.03 | 0.01 | 89 | 1008.5 |
| 20260506172544 | 54 | 225 | 3.0 | 8.0 | 0.01 | 0.03 | 0.01 | 89 | 1008.4 |
| 20260506171544 | 54 | 225 | 3.0 | 6.0 | 0.01 | 0.03 | 0.01 | 89 | 1008.2 |
| 20260506170546 | 55 | 225 | 2.0 | 5.0 | 0.01 | 0.03 | 0.01 | 89 | 1008.1 |
| 20260506165546 | 55 | 225 | 2.0 | 5.0 | 0.00 | 0.03 | 0.00 | 88 | 1008.2 |
| 20260506164544 | 55 | 248 | 4.0 | 7.0 | 0.00 | 0.03 | 0.00 | 87 | 1008.2 |
| 20260506163544 | 55 | 248 | 5.0 | 11.0 | 0.00 | 0.03 | 0.00 | 87 | 1008.3 |
| 20260506162544 | 55 | 248 | 5.0 | 11.0 | 0.00 | 0.03 | 0.00 | 86 | 1008.3 |
| 20260506161546 | 55 | 248 | 5.0 | 11.0 | 0.00 | 0.03 | 0.00 | 87 | 1008.2 |
| 20260506160546 | 55 | 248 | 5.0 | 9.0 | 0.00 | 0.03 | 0.00 | 87 | 1008.2 |
| 20260506155546 | 55 | 248 | 5.0 | 10.0 | 0.00 | 0.03 | 0.00 | 87 | 1008.1 |
| 20260506154546 | 55 | 270 | 3.0 | 8.0 | 0.00 | 0.03 | 0.00 | 87 | 1008.0 |
| 20260506153546 | 55 | 270 | 3.0 | 8.0 | 0.00 | 0.03 | 0.00 | 87 | 1008.0 |
| 20260506152546 | 55 | 270 | 4.0 | 9.0 | 0.00 | 0.03 | 0.00 | 87 | 1008.0 |
| 20260506151546 | 55 | 292 | 4.0 | 12.0 | 0.00 | 0.03 | 0.00 | 87 | 1007.8 |
| 20260506150546 | 55 | 292 | 7.0 | 14.0 | 0.00 | 0.03 | 0.00 | 87 | 1007.7 |
| 20260506145546 | 55 | 292 | 8.0 | 14.0 | 0.00 | 0.05 | 0.00 | 87 | 1007.6 |
| 20260506144546 | 55 | 292 | 8.0 | 15.0 | 0.00 | 0.05 | 0.00 | 86 | 1007.5 |
| 20260506143546 | 56 | 270 | 11.0 | 21.0 | 0.00 | 0.05 | 0.00 | 85 | 1007.6 |
| 20260506142544 | 56 | 270 | 12.0 | 19.0 | 0.00 | 0.05 | 0.00 | 82 | 1007.6 |
| 20260506141544 | 58 | 270 | 11.0 | 22.0 | 0.00 | 0.05 | 0.00 | 78 | 1007.5 |
| 20260506140544 | 62 | 270 | 5.0 | 9.0 | 0.00 | 0.05 | 0.00 | 76 | 1007.1 |
| 20260506135544 | 62 | 270 | 4.0 | 8.0 | 0.00 | 0.09 | 0.00 | 71 | 1007.0 |
| 20260506134544 | 62 | 292 | 3.0 | 7.0 | 0.00 | 0.09 | 0.00 | 71 | 1006.9 |
| 20260506133544 | 63 | 292 | 4.0 | 7.0 | 0.00 | 0.09 | 0.00 | 69 | 1006.8 |
| 20260506132544 | 63 | 292 | 3.0 | 6.0 | 0.00 | 0.09 | 0.00 | 70 | 1006.8 |
| 20260506131544 | 64 | 315 | 2.0 | 5.0 | 0.00 | 0.09 | 0.00 | 67 | 1006.7 |
| 20260506130544 | 64 | 315 | 0.0 | 1.0 | 0.00 | 0.09 | 0.00 | 65 | 1006.6 |
| 20260506125544 | 64 | 315 | 2.0 | 4.0 | 0.00 | 0.17 | 0.00 | 65 | 1006.5 |
| 20260506124544 | 65 | 180 | 1.0 | 4.0 | 0.00 | 0.17 | 0.00 | 64 | 1006.5 |
| 20260506123735 | 65 | 135 | 1.0 | 4.0 | 0.00 | 0.17 | 0.00 | 62 | 1006.4 |
| 20260506122735 | 65 | 135 | 2.0 | 4.0 | 0.00 | 0.17 | 0.00 | 64 | 1006.6 |
| 20260506121735 | 65 | 112 | 3.0 | 7.0 | 0.00 | 0.17 | 0.00 | 65 | 1006.5 |
| 20260506120735 | 65 | 112 | 3.0 | 8.0 | 0.00 | 0.17 | 0.00 | 66 | 1006.7 |
| 20260506115735 | 65 | 112 | 4.0 | 9.0 | 0.00 | 0.17 | 0.00 | 67 | 1006.8 |
| 20260506114735 | 65 | 112 | 3.0 | 8.0 | 0.00 | 0.17 | 0.00 | 65 | 1006.8 |
| 20260506113735 | 66 | 158 | 2.0 | 5.0 | 0.00 | 0.17 | 0.00 | 64 | 1006.6 |
| 20260506112735 | 66 | 180 | 2.0 | 5.0 | 0.00 | 0.17 | 0.00 | 65 | 1006.7 |
| 20260506111735 | 66 | 202 | 2.0 | 6.0 | 0.00 | 0.17 | 0.00 | 66 | 1006.8 |
| 20260506110735 | 65 | 202 | 1.0 | 4.0 | 0.00 | 0.17 | 0.00 | 64 | 1007.1 |
| 20260506105735 | 64 | 270 | 3.0 | 6.0 | 0.00 | 0.17 | 0.00 | 66 | 1007.1 |
| 20260506104735 | 63 | 22 | 3.0 | 6.0 | 0.00 | 0.17 | 0.00 | 68 | 1007.1 |
| 20260506103735 | 63 | 22 | 2.0 | 7.0 | 0.00 | 0.17 | 0.00 | 68 | 1007.2 |
| 20260506102735 | 63 | 338 | 3.0 | 8.0 | 0.00 | 0.17 | 0.00 | 68 | 1007.4 |
| 20260506101735 | 63 | 360 | 4.0 | 7.0 | 0.00 | 0.17 | 0.00 | 69 | 1007.4 |
| 20260506100733 | 63 | 360 | 3.0 | 7.0 | 0.00 | 0.17 | 0.00 | 69 | 1007.4 |
| 20260506095733 | 64 | 158 | 1.0 | 5.0 | 0.00 | 0.17 | 0.00 | 66 | 1007.5 |
| 20260506094734 | 64 | 202 | 2.0 | 5.0 | 0.00 | 0.17 | 0.00 | 65 | 1007.6 |
| 20260506093734 | 64 | 270 | 2.0 | 6.0 | 0.00 | 0.17 | 0.00 | 65 | 1007.5 |